International Telecommunication Union   ITU
عربي  |  中文  |  Español  |  Français  |  Русский
 
 Advanced Search Advanced Search Site map Contact us Print version
  Home : ITU-R : Space Services : SNL : Bringing into use
Radiocommunication Sector (ITU-R)  
Bringing into use of satellite network frequency assignments 
Bringing into use of satellite network frequency assignments

This table gives information about the date of bringing into use of planned and non-planned satellite network frequency assignments.

The notified frequency assignments appear in this list after their publication in Part I-S of the BR IFIC.

The Bureau is also publishing bringing into use information submitted in conjunction with a submission under § 4.1.12/4.2.16 of Appendices 30 and 30A (Part B) or § 6.17 of Appendix 30B (A6B).

Please note that this table is for information only. The official confirmation of bringing into use is the publication in PART I-S and PART II-S of the BR  IFIC.

For more information about the procedure of bringing into use, please refer to the Circular letter CR/343. 

Meaning of the symbol in the column "Status":

  N : Not yet confirmed, the date in the column "Date of bringing into use" is the foreseen date
  I : Initial information on bringing into use
  C : Confirmed brought into use, No. 11.44B conditions fullfilled.

For any comments or information,  please contact us 

Last update of the database: 15.04.2014 - The update is done normally every 2 weeks.

Your query :  All networks
Query the database  - Print version  - Explanations  - Export in txt format  - Export in Excel format 

Total line = 200/2314
Go to page : 123456789101112
Notice ID
(SNS)
Satellite Name
(SNL Part B)
ADMORGLong_nomDate of receipt
of the notice
Date of bringing
into use
StatusExpiry Date for
Bringing Into Use
PublicationProvision
up down up down up down  up down up down up down up down up down up down up down 
114500038 LUX-G5-25  LUX  108.2 13.03.2014 01.01.2013 C  Part I-S 11.2  
114500038 LUX-G5-25  LUX  108.2 13.03.2014 04.01.2013 C  Part I-S 11.2  
98500032 EMU-SSCS  USA  N-GSO 06.03.2014 01.12.1998 C  Part II-S 11.2  
103500133 JCSAT-1R  J   150 27.02.2014 17.02.1997 C  Part II-S 11.2  
103500133 JCSAT-1R  J   150 27.02.2014 31.12.2003 C  Part II-S 11.2  
103500133 JCSAT-1R  J   150 27.02.2014 01.12.2005 C  Part II-S 11.2  
314500029 USNN-3  USA  -127 18.02.2014 18.03.2013 C  Part I-S 11.2  
314500031 USNN-4  USA  100 18.02.2014 28.05.2014 N 20.02.2015 Part I-S 11.2  
312500236 EXPRESS-6KA  RUS  80 18.02.2014 16.02.2015 N 13.03.2015 Part I-S 11.2  
314500026 NILESAT-103  EGY  -7 16.02.2014 01.12.2012 C  Part I-S 11.2  
114500027 HODOYOSHI-3-4  J   N-GSO 12.02.2014 01.05.2014 N 28.12.2019 Part I-S 11.2  
312500235 EXPRESS-5KA  RUS  53 10.02.2014 16.06.2014 N 11.12.2015 Part I-S 11.2  
314500020 YAHSAT  UAE  52.5 10.02.2014 22.04.2011 C  Part I-S 11.2  
314500024 WSDRN-M  RUS  -16 06.02.2014 12.12.2012 C  Part I-S 11.2  
314500024 WSDRN-M  RUS  -16 06.02.2014 15.05.2015 N 06.02.2019 Part I-S 11.2  
314500023 VSSRD-2M  RUS  167 06.02.2014 23.12.2012 C  Part I-S 11.2  
314500023 VSSRD-2M  RUS  167 06.02.2014 15.05.2015 N 06.02.2019 Part I-S 11.2  
114500025 POTOK-ISS  RUS  N-GSO 06.02.2014 15.05.2015 N 13.12.2018 Part I-S 11.2  
314500022 CSDRN-M  RUS  95 06.02.2014 26.06.2012 C  Part I-S 11.2  
314500022 CSDRN-M  RUS  95 06.02.2014 15.05.2015 N 06.02.2019 Part I-S 11.2  
114500018 MMI  IND  N-GSO 04.02.2014 05.11.2013 C  Part I-S 11.2  
295500170 KOREASAT-1  KOR  116 03.02.2014 05.02.1996 C  Part I-S 11.2  
295500170 KOREASAT-1  KOR  116 03.02.2014 15.11.1999 C  Part I-S 11.2  
114500014 M3MSAT  CAN  N-GSO 30.01.2014 01.03.2014 N 05.10.2018 Part I-S 11.2  
114500016 N-SAT2-162E  J   162 28.01.2014 17.02.2016 N 17.02.2016 Part I-S 11.2  
108500022 N-SAT-143.72E  J   143.72 24.01.2014 24.11.2008 C  Part II-S 11.2  
114500011 DZZ-HR  KAZ  N-GSO 20.01.2014 01.01.2015 N 13.01.2019 Part I-S 11.2  
114500015 SIRIUS-5E-2  S   20.01.2014 02.09.2010 C  Part I-S 11.2  
114500015 SIRIUS-5E-2  S   20.01.2014 08.10.2012 C  Part I-S 11.2  
114500010 USASAT-55J  USA  -1 17.01.2014 19.09.2013 C  Part I-S 11.2  
114500012 MEXSAT116.8 L-CEXT-X  MEX  -116.8 15.01.2014 28.08.2013 C  Part I-S 11.2  
114500007 MEXSAT113 L-CEXT-X  MEX  -113 15.01.2014 13.05.2013 C  Part I-S 11.2  
314500021 B-SAT-1Q  B   -61 13.01.2014 10.04.2013 C  Part I-S 11.2  
114500009 VOLNA-3R  RUS  -11 13.01.2014 11.02.2013 C  Part I-S 11.2  
114500008 VOLNA-5R  RUS  96.5 13.01.2014 11.02.2013 C  Part I-S 11.2  
107500633 MEASAT-46E  MLA  46 10.01.2014 19.12.2007 C  Part II-S 11.2  
314500006 GC-1  CHN  N-GSO 08.01.2014 26.04.2013 C  Part I-S 11.2  
114500005 INSAT-G5(74)  IND  74 08.01.2014 12.09.2013 C  Part I-S 11.2  
114500003 INSAT-KAUHF (74)  IND  74 07.01.2014 12.09.2013 C  Part I-S 11.2  
114500004 INSAT-KU11(74)E  IND  74 07.01.2014 12.09.2013 C  Part I-S 11.2  
111500125 KAZSAT2M  KAZ  86.5 30.12.2013 26.11.2011 C  Part II-S 11.2  
111500122 KAZSAT1M  KAZ  58.5 27.12.2013 19.12.2011 C  Part II-S 11.2  
313500204 ALOS-2  J   N-GSO 25.12.2013 01.08.2013 N 30.11.2016 Part I-S 11.2  
313500204 ALOS-2  J   N-GSO 25.12.2013 01.08.2013 N 12.10.2019 Part I-S 11.2  
113500202 N-SAT-154E  J   154 25.12.2013 17.02.2016 N 17.02.2016 Part I-S 11.2  
113560020 SIRIUS-6-BSS  S   4.8 19.12.2013 01.11.2013 C  Part II-S 5.1.2  
313500198 STATSIONAR-20  RUS  70 18.12.2013 31.12.1990 C  Part I-S 11.2  
313500198 STATSIONAR-20  RUS  70 18.12.2013 01.10.1994 C  Part I-S 11.2  
313500198 STATSIONAR-20  RUS  70 18.12.2013 23.08.2005 C  Part I-S 11.2  
313500198 STATSIONAR-20  RUS  70 18.12.2013 12.06.2014 N 17.12.2014 Part I-S 11.2  
113500201 PACIFISAT-9  PNG  116.1 18.12.2013 20.08.2013 C  Part I-S 11.2  
113500197 HISPASAT 2A 36W  E   -36 16.12.2013 20.09.2013 C  Part I-S 11.2  
113500197 HISPASAT 2A 36W  E   -36 16.12.2013 28.11.2015 N 28.11.2015 Part I-S 11.2  
313500199 KAZSAT2  KAZ  86.5 12.12.2013 26.11.2011 C  Part I-S 11.2  
313500199 KAZSAT2  KAZ  86.5 12.12.2013 18.02.2012 C  Part I-S 11.2  
290500001 PALAPA-B3  INS  118 11.12.2013 30.04.1990 C  Part I-S 11.2  
290500001 PALAPA-B3  INS  118 11.12.2013 01.12.2000 C  Part I-S 11.2  
290500001 PALAPA-B3  INS  118 11.12.2013 01.01.2013 C  Part I-S 11.2  
113500185 LITUANICASAT-1  LTU  N-GSO 11.12.2013 15.01.2014 N 06.02.2020 Part I-S 11.2  
309500491 PALAPA-C3-K  INS  118 11.12.2013 15.07.2006 C  Part I-S 11.2  
112500145 ASIASAT-CKZ  CHN  105.5 03.12.2013 24.04.2012 C  Part II-S 11.2  
113500191 INSAT-MET82E  IND  82 25.11.2013 28.07.2013 C  Part I-S 11.2  
113500192 INSAT-TTC(82)E  IND  82 25.11.2013 25.07.2013 N 06.03.2016 Part I-S 11.2  
313500186 TERRASAR  D   N-GSO 21.11.2013 31.05.2007 C  Part I-S 11.2  
313500186 TERRASAR  D   N-GSO 21.11.2013 15.06.2007 C  Part I-S 11.2  
313500186 TERRASAR  D   N-GSO 21.11.2013 30.09.2009 C  Part I-S 11.2  
313500186 TERRASAR  D   N-GSO 21.11.2013 21.10.2009 C  Part I-S 11.2  
313500186 TERRASAR  D   N-GSO 21.11.2013 21.06.2010 C  Part I-S 11.2  
113500188 ITF-1  J   N-GSO 20.11.2013 14.02.2014 N 20.10.2018 Part II-S 11.2  
113500190 USGAE-7M  USA  -68 19.11.2013 17.03.2013 N 18.03.2016 Part I-S 11.2  
113500189 STSAT-3  KOR  N-GSO 19.11.2013 21.11.2013 C  Part I-S 11.2  
113500187 F-SAT-KU-E-7W  F   -7 19.11.2013 15.10.2013 C  Part I-S 11.2  
313500195 B-SAT-1W  B   -48 14.11.2013 31.05.2013 C  Part I-S 11.2  
313500151 MKA-FKI  RUS  N-GSO 14.11.2013 01.06.2014 N 23.09.2016 Part I-S 11.2  
313500151 MKA-FKI  RUS  N-GSO 14.11.2013 23.09.2016 N 23.09.2016 Part I-S 11.2  
313500151 MKA-FKI  RUS  N-GSO 14.11.2013 23.09.2016 N 03.08.2017 Part I-S 11.2  
113500181 DELFI-N3XT  HOL  N-GSO 13.11.2013 21.11.2013 N 24.01.2019 Part II-S 11.2  
113500183 FUNCUBE-1  HOL  N-GSO 13.11.2013 10.11.2012 C  Part I-S 11.2  
113500182 TRITON1  HOL  N-GSO 13.11.2013 01.11.2012 C  Part II-S 11.2  
113500182 TRITON1  HOL  N-GSO 13.11.2013 01.01.2013 C  Part II-S 11.2  
113500180 INSAT-NAV(55)  IND  55 06.11.2013 09.07.2013 C  Part I-S 11.2  
308501265 CTDRS-1-77E  CHN  77 06.11.2013 01.05.2008 C  Part I-S 11.2  
308501266 CTDRS-1-80E  CHN  80 06.11.2013 20.12.2008 C  Part I-S 11.2  
312500006 N-SAT-82E  J   82 06.11.2013 15.04.2013 C  Part I-S 11.2  
312500244 N-SAT-90.75E  J   90.75 06.11.2013 01.11.2012 C  Part I-S 11.2  
313500113 N-SAT-93E  J   93 06.11.2013 28.11.2012 C  Part I-S 11.2  
113570006 F-SAT-E-30B-7W  F   -7 31.10.2013 18.07.2013 C  Part II-S A30B#8.1  
112500153 SIRIUS-5E  S   31.10.2013 29.01.2008 C  Part II-S 11.2  
112500153 SIRIUS-5E  S   31.10.2013 04.02.2010 C  Part II-S 11.2  
112500153 SIRIUS-5E  S   31.10.2013 02.09.2010 C  Part II-S 11.2  
113500107 ISS - ARISS  I   N-GSO 30.10.2013 01.09.2013 C  Part II-S 11.2  
113500200 TWSAT  IND  N-GSO 30.10.2013 28.04.2008 C  Part II-S 11.2  
113570009 HISPASAT-1E  E   -30 30.10.2013 02.07.2013 C  Part II-S A30B#8.1  
113500171 CTDRS-2-171E  CHN  171 29.10.2013 28.07.2013 C  Part I-S 11.2  
110570004 CERES-1  HNG  -4 24.10.2013 20.12.2009 C  Part II-S A30B#8.1  
307500427 PALAPA-C3  INS  118 23.10.2013 01.02.1999 C  Part I-S 11.2  
307500144 PALAPA-B1-EC  INS  108 23.10.2013 01.12.1998 C  Part I-S 11.2  
303500163 PALAPA-C2  INS  108 23.10.2013 10.08.2002 C  Part I-S 11.2  
290500037 PALAPA-B1  INS  108 23.10.2013 30.10.1983 C  Part I-S 11.2  
290500037 PALAPA-B1  INS  108 23.10.2013 01.12.1998 C  Part I-S 11.2  
290500037 PALAPA-B1  INS  108 23.10.2013 21.02.2006 C  Part I-S 11.2  
113500184 TDRS 12W-R  USA  -12 16.10.2013 01.12.2015 N 17.12.2019 Part I-S 11.2  
113500041 KOMPSAT-3A  KOR  N-GSO 16.10.2013 05.12.2014 N 04.04.2019 Part II-S 11.2  
113560019 INTELSAT KUEXT 66E  G   66 01.10.2013 04.10.2013 C  Part II-S 5.1.2  
102500047 ROSCOM-4  RUS  49 24.09.2013 12.05.2003 C  Part II-S 11.2  
313500211 CAN-BSS19  CAN  -103 24.09.2013 24.09.2012 C  Part I-S 11.2  
113500140 JMCS-B4-X  J   162 20.09.2013 01.01.2013 C  Part II-S 11.2  
113500139 JMCS-D2-X  J   110 20.09.2013 01.01.2013 C  Part II-S 11.2  
113500156 TSUBAME  J   N-GSO 20.09.2013 01.12.2013 N 02.09.2017 Part II-S 11.2  
112500234 CTDRS-2-16.8E  CHN  16.8 17.09.2013 25.07.2012 C  Part II-S 11.2  
113500049 CANSAT-31  CAN  -82 13.09.2013 11.10.2008 C  Part II-S 11.2  
113500155 ICUBE-1  PAK  N-GSO 13.09.2013 15.12.2012 C  Part II-S 11.2  
113500150 BRITE-PL  POL  N-GSO 05.09.2013 01.12.2013 N 21.12.2017 Part II-S 11.2  
113500152 ISS RAPIDSCAT  USA  N-GSO 05.09.2013 01.02.2015 N 19.12.2019 Part II-S 11.2  
313500149 EMARSAT-1G  UAE  52.5 02.09.2013 01.03.1998 C  Part I-S 11.2  
313500149 EMARSAT-1G  UAE  52.5 02.09.2013 01.05.2000 C  Part I-S 11.2  
113500174 SPECTR-RG  RUS  N-GSO 29.08.2013 01.06.2016 N 26.09.2019 Part II-S 11.2  
113500144 CTDRS-2-167E  CHN  167 26.08.2013 02.11.2013 C  Part II-S 11.2  
113500138 USASAT-55O  USA  -50 22.08.2013 20.01.2016 N 08.09.2016 Part II-S 11.2  
113500145 HODOYOSHI  J   N-GSO 22.08.2013 01.12.2013 N 23.06.2018 Part II-S 11.2  
313500148 ADF UHF-2  AUS  72.1 14.08.2013 14.05.2012 C  Part I-S 11.2  
113500173 LUNA-RESURS  RUS  N-GSO 12.08.2013 01.06.2016 N 13.11.2019 Part II-S 11.2  
113560017 F-SAT-E-BSS-7W  F   -7 07.08.2013 09.04.2013 C  Part II-S 5.1.2  
113560018 F-SAT-E-BSS-7W  F   -7 07.08.2013 09.04.2013 C  Part II-S 5.1.6  
113500126 USABSS-21  USA  -101 06.08.2013 08.04.2013 C  Part II-S 11.2  
313500208 TDRS 89E  USA  89 06.08.2013 12.04.2007 C  Part I-S 11.2  
313500208 TDRS 89E  USA  89 06.08.2013 28.10.2011 C  Part I-S 11.2  
313500208 TDRS 89E  USA  89 06.08.2013 27.07.2012 C  Part I-S 11.2  
313500208 TDRS 89E  USA  89 06.08.2013 01.01.2015 N 17.12.2017 Part I-S 11.2  
113500130 EUROPESTAR-45E  D   45 05.08.2013 01.07.2012 C  Part II-S 11.2  
113500124 CHUBUSAT-1  J   N-GSO 05.08.2013 01.12.2013 N 08.08.2018 Part II-S 11.2  
113500147 DZZ-MR  KAZ  N-GSO 02.08.2013 01.01.2015 N 13.01.2019 Part II-S 11.2  
113500137 NILESAT-301-7W  EGY  -7 30.07.2013 14.09.2010 C  Part II-S 11.2  
113500141 CHNSAT-98E  CHN  98.2 26.07.2013 03.06.2012 C  Part II-S 11.2  
113500129 EUROPESTAR-47.5E  D   47.5 26.07.2013 01.11.2012 C  Part II-S 11.2  
113500123 QSAT  J   N-GSO 23.07.2013 01.02.2014 N 09.12.2017 Part II-S 11.2  
111500196 GAIA  F  ESA N-GSO 22.07.2013 19.12.2013 C  Part II-S 11.2  
113500108 HUMSAT-D  E   N-GSO 15.07.2013 01.11.2013 N 28.05.2019 Part II-S 11.2  
113500064 EDRS-1  F   12.07.2013 01.04.2016 N 23.02.2018 Part II-S 11.2  
113500118 SINOSAT-5  CHN  110.5 11.07.2013 21.06.2011 C  Part II-S 11.2  
112500244 N-SAT-90.75E  J   90.75 09.07.2013 01.11.2012 C  Part II-S 11.2  
113500106 ESAT 1  G   25 08.07.2013 14.05.2013 C  Part II-S 11.2  
98500185 GALS-16  RUS  70 03.07.2013 01.06.1992 C  Part II-S 11.2  
98500185 GALS-16  RUS  70 03.07.2013 01.06.2009 C  Part II-S 11.2  
112500246 AUSSAT C 156E GOVR  AUS  156 03.07.2013 19.09.2012 C  Part II-S 11.2  
112500263 IRIS-8A  USA  -177 03.07.2013 01.12.2012 C  Part II-S 11.2  
107500312 INTELSAT9 307E  USA  -53 28.06.2013 01.03.2007 C  Part II-S 11.2  
103500100 INTELSAT8 307E  USA  -53 28.06.2013 01.04.1996 C  Part II-S 11.2  
103500100 INTELSAT8 307E  USA  -53 28.06.2013 01.01.1999 C  Part II-S 11.2  
103500100 INTELSAT8 307E  USA  -53 28.06.2013 17.04.2003 C  Part II-S 11.2  
90501108 INTELSAT IBS 307E  USA  -53 28.06.2013 17.05.1988 C  Part II-S 11.2  
90501108 INTELSAT IBS 307E  USA  -53 28.06.2013 15.07.1988 C  Part II-S 11.2  
105500377 USASAT-14J-2  USA  72 28.06.2013 30.09.1999 C  Part II-S 11.2  
109500843 DFH-3-OC M  CHN  87.5 28.06.2013 01.03.2013 C  Part II-S 11.2  
109500843 DFH-3-OC M  CHN  87.5 28.06.2013 17.05.2013 C  Part II-S 11.2  
113560011 MCO-BSS-52E  MCO  52 25.06.2013 19.06.2013 C  Part II-S 5.1.2  
113560012 MCO-BSS-52E  MCO  52 25.06.2013 19.06.2013 C  Part II-S 5.1.6  
113560013 MCO-BSS-52EA  MCO  52 25.06.2013 19.06.2013 C  Part II-S 5.1.2  
113560014 MCO-BSS-52EA  MCO  52 25.06.2013 19.06.2013 C  Part II-S 5.1.6  
113560015 MCO-BSS-52EAP  MCO  52 25.06.2013 19.06.2013 C  Part II-S 5.1.2  
113560016 MCO-BSS-52EAP  MCO  52 25.06.2013 19.06.2013 C  Part II-S 5.1.6  
107500175 LUX-30B-6  LUX  23.5 24.06.2013 17.02.2007 C  Part II-S A30B#8.1  
110500152 LUX-G3-24.2E  LUX  23.5 24.06.2013 19.02.2009 C  Part II-S 11.2  
111500006 CONNECT  USA  N-GSO 24.06.2013 27.07.2012 C  Part II-S 11.2  
111500006 CONNECT  USA  N-GSO 24.06.2013 15.11.2013 N 19.04.2017 Part II-S 11.2  
90500646 TDRS EAST  USA  -41 24.06.2013 30.12.1995 C  Part II-S 11.2  
90500646 TDRS EAST  USA  -41 24.06.2013 27.11.1997 C  Part II-S 11.2  
90500646 TDRS EAST  USA  -41 24.06.2013 01.09.1998 C  Part II-S 11.2  
90500646 TDRS EAST  USA  -41 24.06.2013 18.12.1999 C  Part II-S 11.2  
90500646 TDRS EAST  USA  -41 24.06.2013 30.11.2000 C  Part II-S 11.2  
90500646 TDRS EAST  USA  -41 24.06.2013 01.01.2002 C  Part II-S 11.2  
90500646 TDRS EAST  USA  -41 24.06.2013 04.05.2002 C  Part II-S 11.2  
90500646 TDRS EAST  USA  -41 24.06.2013 20.04.2004 C  Part II-S 11.2  
90500646 TDRS EAST  USA  -41 24.06.2013 15.07.2004 C  Part II-S 11.2  
90500646 TDRS EAST  USA  -41 24.06.2013 20.11.2004 C  Part II-S 11.2  
90500646 TDRS EAST  USA  -41 24.06.2013 27.07.2012 C  Part II-S 11.2  
90500646 TDRS EAST  USA  -41 24.06.2013 01.10.2014 N 21.10.2016 Part II-S 11.2  
90500647 TDRS WEST  USA  -171 24.06.2013 29.09.1988 C  Part II-S 11.2  
90500647 TDRS WEST  USA  -171 24.06.2013 30.12.1995 C  Part II-S 11.2  
90500647 TDRS WEST  USA  -171 24.06.2013 27.11.1997 C  Part II-S 11.2  
90500647 TDRS WEST  USA  -171 24.06.2013 04.05.1998 C  Part II-S 11.2  
90500647 TDRS WEST  USA  -171 24.06.2013 01.09.1998 C  Part II-S 11.2  
90500647 TDRS WEST  USA  -171 24.06.2013 18.12.1999 C  Part II-S 11.2  
90500647 TDRS WEST  USA  -171 24.06.2013 30.06.2000 C  Part II-S 11.2  
90500647 TDRS WEST  USA  -171 24.06.2013 30.11.2000 C  Part II-S 11.2  
90500647 TDRS WEST  USA  -171 24.06.2013 04.05.2002 C  Part II-S 11.2  
90500647 TDRS WEST  USA  -171 24.06.2013 20.04.2004 C  Part II-S 11.2  
90500647 TDRS WEST  USA  -171 24.06.2013 15.07.2004 C  Part II-S 11.2  
90500647 TDRS WEST  USA  -171 24.06.2013 20.11.2004 C  Part II-S 11.2  
90500647 TDRS WEST  USA  -171 24.06.2013 27.07.2012 C  Part II-S 11.2  
90500647 TDRS WEST  USA  -171 24.06.2013 01.10.2014 N 21.10.2016 Part II-S 11.2  
91910108 TDRS-C2  USA  -79 24.06.2013 13.03.1989 C  Part II-S 11.2  
91910108 TDRS-C2  USA  -79 24.06.2013 30.12.1995 C  Part II-S 11.2  
91910108 TDRS-C2  USA  -79 24.06.2013 27.11.1997 C  Part II-S 11.2  
91910108 TDRS-C2  USA  -79 24.06.2013 01.09.1998 C  Part II-S 11.2  
91910108 TDRS-C2  USA  -79 24.06.2013 18.12.1999 C  Part II-S 11.2  
91910108 TDRS-C2  USA  -79 24.06.2013 30.11.2000 C  Part II-S 11.2  
91910108 TDRS-C2  USA  -79 24.06.2013 04.05.2002 C  Part II-S 11.2  
91910108 TDRS-C2  USA  -79 24.06.2013 20.04.2004 C  Part II-S 11.2  
Total line = 200/2314
Go to page : 123456789101112

 

Top - Feedback - Contact us -  Copyright © ITU 2014 All Rights Reserved
Contact for this page : Webmaster
Updated : 2014-04-19